Arcata, CA

11:04 PM PDT on April 22, 2017 (GMT -0700)
Arcata

Weather History for KACV - November, 2012

Change the Weather History Date:

Saturday, November 3, 2012

  Actual Average Record
Temperature  
Mean Temperature 58 °F -  
Max Temperature 66 °F 57 °F 66 °F (2012)
Min Temperature 51 °F 41 °F 33 °F (2002)
Degree Days  
Heating Degree Days 7    
Growing Degree Days 8 (Base 50)    
Moisture  
Dew Point 54 °F    
Average Humidity 89    
Maximum Humidity 100    
Minimum Humidity 72    
Precipitation  
Precipitation 0.00 in - - ()
Sea Level Pressure  
Sea Level Pressure 30.16 in    
Wind  
Wind Speed 1 mph (North)    
Max Wind Speed 7 mph    
Max Gust Speed -    
Visibility 10 miles    
Events      
Averages and records for this station are not official NWS values.
T = Trace of Precipitation, MM = Missing Value Source: NWS Daily Summary

Daily Weather History Graph

Daily Weather History Graph

Search for Another Location

Airport or City:

Trip Planner

Search our weather history database for the weather conditions in past years. The results will help you decide how hot, cold, wet, or windy it might be!

Date:

Astronomy

Nov. 03, 2012 Rise Set
Actual Time 7:50 AM PDT 6:09 PM PDT
Civil Twilight 7:21 AM PDT 6:37 PM PDT
Nautical Twilight 6:48 AM PDT 7:10 PM PDT
Astronomical Twilight 6:16 AM PDT 7:42 PM PDT
Moon 9:54 PM PDT (11/3) 11:59 AM PDT (11/3)
Length of Visible Light 11h 16m
Length of Day
10h 18m
Waning Gibbous, 79% of the Moon is Illuminated
Nov 3
Waning Gibbous
Nov 6
Last Quarter
Nov 13
New
Nov 20
First Quarter
Nov 28
Full

Hourly Weather History & Observations

Time (PDT) Temp. Dew Point Humidity Pressure Visibility Wind Dir Wind Speed Gust Speed Precip Events Conditions
12:49 AM 55.4 °F 53.6 °F 94% 30.04 in 10.0 mi Calm Calm - N/A   Overcast
12:53 AM 55.9 °F 53.1 °F 90% 30.05 in 10.0 mi Calm Calm - N/A   Overcast
1:53 AM 55.9 °F 54.0 °F 93% 30.08 in 10.0 mi Calm Calm - N/A   Overcast
2:53 AM 55.9 °F 53.1 °F 90% 30.09 in 10.0 mi Calm Calm - N/A   Overcast
3:53 AM 55.9 °F 54.0 °F 93% 30.09 in 10.0 mi ENE 3.5 mph - N/A   Overcast
4:53 AM 57.0 °F 54.0 °F 89% 30.10 in 10.0 mi East 4.6 mph - N/A   Overcast
5:53 AM 55.9 °F 54.0 °F 93% 30.12 in 10.0 mi ENE 3.5 mph - N/A   Overcast
6:53 AM 55.9 °F 54.0 °F 93% 30.14 in 10.0 mi Calm Calm - N/A   Overcast
7:53 AM 55.0 °F 54.0 °F 96% 30.15 in 10.0 mi Calm Calm - N/A   Overcast
8:53 AM 55.9 °F 55.0 °F 97% 30.16 in 10.0 mi Calm Calm - N/A   Mostly Cloudy
9:53 AM 61.0 °F 55.9 °F 83% 30.16 in 10.0 mi Calm Calm - N/A   Overcast
10:53 AM 63.0 °F 57.9 °F 84% 30.16 in 4.0 mi WNW 3.5 mph - N/A   Haze
11:53 AM 63.0 °F 57.0 °F 81% 30.18 in 10.0 mi NW 4.6 mph - N/A   Partly Cloudy
12:53 PM 61.0 °F 55.9 °F 83% 30.18 in 10.0 mi Calm Calm - N/A   Partly Cloudy
1:53 PM 64.0 °F 55.0 °F 73% 30.16 in 10.0 mi WNW 6.9 mph - N/A   Clear
2:53 PM 63.0 °F 54.0 °F 72% 30.17 in 10.0 mi NW 3.5 mph - N/A   Clear
3:53 PM 62.1 °F 54.0 °F 75% 30.19 in 10.0 mi NNW 6.9 mph - N/A   Clear
4:53 PM 60.1 °F 53.1 °F 78% 30.19 in 10.0 mi NNW 4.6 mph - N/A   Clear
5:53 PM 57.9 °F 53.1 °F 84% 30.21 in 10.0 mi Calm Calm - N/A   Clear
6:53 PM 55.0 °F 53.1 °F 93% 30.20 in 10.0 mi ESE 3.5 mph - N/A   Clear
7:53 PM 54.0 °F 52.0 °F 93% 30.21 in 10.0 mi Calm Calm - N/A   Clear
8:53 PM 53.1 °F 52.0 °F 96% 30.21 in 10.0 mi Calm Calm - N/A   Clear
9:53 PM 52.0 °F 51.1 °F 97% 30.21 in 10.0 mi East 3.5 mph - N/A   Clear
10:53 PM 52.0 °F 51.1 °F 97% 30.22 in 10.0 mi Calm Calm - N/A   Clear
11:53 PM 51.1 °F 51.1 °F 100% 30.22 in 10.0 mi Calm Calm - N/A   Clear